[[{"header":{"parameterUnit":"m.s-1","parameterCategory":1,"la1":30.2991,"la2":30.254,"lo1":-89.0895,"lo2":-89.0444,"dy":0.0017,"dx":0.0017,"nx":28,"ny":28,"refTime":"2025-11-11T09:00:00:Z","depth":0,"parameterNumber":2,"parameterNumberName":"U-component_of_WINDS"},"data":[0,0,0,0,0,0,0,0,0,0,0,0,0,0,0,0,0,0,0,0,0,0,0,0,0,0,0,0,0,0,0,0,0,0,0,0,0,0,0,0,0,0,0,0,0,0,0,0,0,0,0,0,0,0,0,0,0,0,1.8175,1.8175,0,1.8162,1.8162,1.8162,1.8112,1.8111,1.8109,1.8108,1.8093,1.8094,1.8095,0,0,0,0,0,0,0,0,0,0,0,0,0,1.8153,1.8154,1.8175,1.8175,1.8175,1.8162,1.8162,1.8162,1.8112,1.8111,1.8109,1.8108,1.8093,1.8094,1.8095,0,0,0,0,0,0,0,0,0,0,0,0,0,1.8154,1.8154,1.8175,1.8148,1.8146,1.8162,1.8162,1.8162,1.8112,1.811,1.8109,1.8107,1.8093,1.8094,1.8095,1.8135,0,0,1.8098,1.8098,0,0,0,0,0,0,0,0,1.8154,1.8154,1.8152,1.815,1.8147,1.8137,1.8148,1.8153,1.8113,1.8125,1.8108,1.8106,1.8109,1.8109,1.811,1.8134,1.8134,1.8098,1.8098,1.8099,1.8099,0,0,0,0,0,0,0,1.8154,1.8155,1.817,1.8152,1.8149,1.8136,1.8134,1.8149,1.8127,1.8124,1.812,1.8119,1.8107,1.8109,1.8109,1.8133,1.8098,1.8099,1.8099,1.81,1.8186,1.8187,0,0,0,0,0,0,1.8158,1.8155,1.817,1.8169,1.8146,1.8138,1.8136,1.8142,1.8126,1.8122,1.8121,1.8117,1.8108,1.8108,1.8108,1.8151,1.8099,1.81,1.81,1.8184,1.8186,1.8188,0,0,0,0,0,0,1.8158,1.816,1.8171,1.8161,1.8162,1.814,1.8147,1.8143,1.8144,1.8124,1.812,1.8127,1.8107,1.8107,1.8128,1.815,1.81,1.8101,1.8182,1.8184,1.8187,1.8239,0,0,0,0,0,0,1.8157,1.816,1.8176,1.8162,1.8162,1.8192,1.8149,1.8143,1.8146,1.8141,1.8129,1.8125,1.8105,1.8127,1.8129,1.815,1.8102,1.818,1.8183,1.8186,1.8235,1.8243,1.8249,0,0,0,0,0,1.8157,1.8192,1.8177,1.8179,1.8182,1.8193,1.8193,1.8171,1.8148,1.8163,1.815,1.8125,1.8148,1.8129,1.8131,1.8153,1.8178,1.8182,1.8186,1.8232,1.8241,1.8249,0,0,0,0,0,0,1.8209,1.819,1.8173,1.8205,1.8201,1.8185,1.8203,1.8182,1.8184,1.8179,1.8151,1.8148,1.8172,1.8165,1.8145,1.8189,1.8159,1.8163,1.8193,1.8202,1.8209,1.8209,1.8103,0,0,0,0,0,1.8225,1.8236,1.8218,1.8248,1.8247,1.8225,1.8229,1.8212,1.8207,1.8205,1.8193,1.8188,1.8193,1.8197,1.8202,1.8234,1.8229,1.825,1.8258,1.8264,1.8267,1.8279,1.8288,1.82,1.82,1.82,0,0,1.8257,1.8247,1.8256,1.8258,1.8253,1.8263,1.8224,1.8238,1.8245,1.8207,1.8224,1.8216,1.8208,1.8234,1.8245,1.8229,1.829,1.8268,1.8273,1.8273,1.8284,1.8292,1.83,1.8203,1.8202,1.8202,0,0,1.8319,1.8315,1.8337,1.8332,1.8325,1.831,1.8315,1.8302,1.8294,1.8312,1.8282,1.8289,1.8301,1.8295,1.8294,1.8351,1.8327,1.8354,1.839,1.8403,1.841,1.8416,1.8433,1.844,1.8357,1.8358,1.8358,0,1.8359,1.8375,1.8351,1.8366,1.8366,1.8332,1.8352,1.8349,1.8343,1.8343,1.8326,1.8336,1.8329,1.8351,1.8365,1.8366,1.8369,1.8354,1.8411,1.8417,1.8422,1.8438,1.8445,1.8361,1.836,1.836,1.836,0,1.8423,1.8434,1.8453,1.8447,1.845,1.8468,1.8445,1.845,1.8432,1.8419,1.8435,1.8425,1.8425,1.8429,1.8413,1.8448,1.8438,1.8417,1.8384,1.8434,1.8448,1.8454,1.8365,1.8364,1.8363,1.8362,0,0,1.8518,1.8497,1.8504,1.85,1.8488,1.8495,1.851,1.851,1.8513,1.8511,1.852,1.8529,1.8508,1.8507,1.8489,1.8501,1.8542,1.8477,1.8476,1.8486,1.8576,1.859,1.8598,1.8527,1.8528,1.8529,1.8575,0,1.8575,1.86,1.8577,1.8606,1.8613,1.858,1.8592,1.8586,1.8573,1.8577,1.8563,1.8568,1.8542,1.854,1.855,1.8535,1.8559,1.8532,1.8533,1.8534,1.8533,1.8606,1.8621,1.8666,1.8581,1.8582,1.8583,0,1.8644,1.8643,1.8672,1.8654,1.8657,1.8669,1.8665,1.867,1.866,1.865,1.8647,1.8625,1.8636,1.8607,1.8621,1.8602,1.8602,1.8594,1.8595,1.8592,1.8559,1.8602,1.868,1.8685,1.8592,1.8591,1.8591,0,1.8706,1.8712,1.8729,1.8726,1.8708,1.8716,1.8709,1.8698,1.8698,1.8694,1.8693,1.8692,1.869,1.8688,1.8665,1.8646,1.868,1.865,1.8669,1.867,1.8676,1.8676,1.8752,1.8681,1.8681,1.8681,1.8681,0,1.877,1.8788,1.8756,1.8766,1.8784,1.8758,1.8776,1.8765,1.8755,1.8761,1.8733,1.8739,1.871,1.8712,1.8694,1.8706,1.8706,1.8697,1.8691,1.8697,1.8698,1.8695,1.869,1.8683,1.8682,1.8682,1.8682,0,1.8841,1.8821,1.8836,1.8817,1.8813,1.8827,1.8809,1.8817,1.8802,1.8809,1.881,1.8786,1.8787,1.8764,1.8761,1.8749,1.8767,1.8758,1.877,1.8766,1.8786,1.8783,1.886,1.8868,1.8795,1.8796,1.8797,0,1.8882,1.8894,1.8876,1.8878,1.8871,1.8876,1.8875,1.8849,1.8849,1.8838,1.8846,1.8844,1.8842,1.8844,1.8826,1.8822,1.8811,1.8838,1.881,1.8815,1.8807,1.8805,1.8805,1.8843,1.8844,1.8845,1.8845,0,1.8954,1.8943,1.8944,1.894,1.8939,1.8935,1.8929,1.8932,1.8904,1.8905,1.8905,1.8903,1.8899,1.8897,1.8889,1.888,1.8857,1.8855,1.8858,1.8864,1.8869,1.8863,1.8783,1.8852,1.8852,1.8851,1.8851,1.8851,1.9009,1.9017,1.9005,1.9005,1.8998,1.8992,1.8997,1.8982,1.8982,1.8976,1.8961,1.8963,1.895,1.8938,1.8931,1.8931,1.8917,1.8923,1.8924,1.8925,1.8928,1.8871,1.893,1.8929,1.8929,1.8929,1.8929,0,1.9077,1.9067,1.9068,1.9059,1.9059,1.9038,1.903,1.903,1.9032,1.9023,1.902,1.9019,1.9016,1.8997,1.8991,1.8995,1.8984,1.8994,1.8992,1.8989,1.8942,1.8938,1.9003,1.9003,1.9003,1.9003,1.9003,1.9003,1.9113,1.9124,1.9111,1.9118,1.9107,1.9109,1.9105,1.9099,1.909,1.909,1.9087,1.9075,1.9061,1.9054,1.9049,1.9044,1.9041,1.9054,1.9045,1.9001,1.8993,1.8986,1.8982,1.9055,1.9055,1.9092,1.9092,1.9092]},{"header":{"parameterUnit":"m.s-1","parameterCategory":1,"la1":30.2991,"la2":30.254,"lo1":-89.0895,"lo2":-89.0444,"dy":0.0017,"dx":0.0017,"nx":28,"ny":28,"refTime":"2025-11-11T09:00:00:Z","depth":0,"parameterNumber":3,"parameterNumberName":"V-component_of_WINDS"},"data":[0,0,0,0,0,0,0,0,0,0,0,0,0,0,0,0,0,0,0,0,0,0,0,0,0,0,0,0,0,0,0,0,0,0,0,0,0,0,0,0,0,0,0,0,0,0,0,0,0,0,0,0,0,0,0,0,0,0,5.1677,5.1677,0,5.174,5.1741,5.1742,5.1675,5.1672,5.167,5.1667,5.1729,5.1733,5.1737,0,0,0,0,0,0,0,0,0,0,0,0,0,5.1491,5.1495,5.1677,5.1678,5.1678,5.174,5.1741,5.1742,5.1675,5.1672,5.1669,5.1666,5.1727,5.1732,5.1737,0,0,0,0,0,0,0,0,0,0,0,0,0,5.1565,5.1497,5.1677,5.1653,5.1651,5.174,5.1741,5.1742,5.1676,5.1672,5.1668,5.1665,5.1726,5.1732,5.1738,5.1852,0,0,5.1756,5.1759,0,0,0,0,0,0,0,0,5.1561,5.1572,5.1655,5.1655,5.1653,5.1696,5.1698,5.1779,5.1677,5.1667,5.1667,5.1663,5.1721,5.1727,5.1747,5.1855,5.1857,5.1757,5.176,5.1763,5.1765,0,0,0,0,0,0,0,5.1556,5.1569,5.1702,5.1657,5.1655,5.1637,5.1643,5.1713,5.1714,5.1667,5.1662,5.1671,5.1719,5.1741,5.1748,5.1858,5.1756,5.1762,5.1766,5.1768,5.2057,5.2061,0,0,0,0,0,0,5.1554,5.1565,5.17,5.1704,5.1597,5.1643,5.165,5.1686,5.1713,5.1714,5.1674,5.1668,5.1733,5.1741,5.175,5.1881,5.1763,5.1768,5.1772,5.2053,5.2058,5.2062,0,0,0,0,0,0,5.1551,5.1567,5.1697,5.1633,5.1648,5.165,5.1691,5.1689,5.1711,5.1719,5.1718,5.1697,5.173,5.1741,5.1826,5.1883,5.1771,5.1777,5.2048,5.2055,5.206,5.2148,0,0,0,0,0,0,5.1546,5.1566,5.1611,5.1635,5.1652,5.1774,5.1695,5.1693,5.1722,5.1714,5.174,5.1741,5.1728,5.1817,5.1832,5.1889,5.1781,5.2043,5.2051,5.2058,5.214,5.2156,5.217,0,0,0,0,0,5.1539,5.1634,5.1614,5.1631,5.1709,5.1778,5.1787,5.1772,5.1727,5.1771,5.1775,5.174,5.1875,5.1827,5.1843,5.1902,5.204,5.2049,5.2058,5.2133,5.2153,5.217,0,0,0,0,0,0,5.1617,5.1637,5.1615,5.172,5.1748,5.1767,5.1822,5.1795,5.1835,5.1826,5.1804,5.181,5.1899,5.1909,5.1855,5.2011,5.1949,5.1962,5.2001,5.202,5.2035,5.2029,5.1786,0,0,0,0,0,5.1646,5.1702,5.1716,5.1807,5.1822,5.182,5.185,5.1835,5.1862,5.1874,5.1884,5.1911,5.1958,5.199,5.2035,5.2142,5.2144,5.219,5.2205,5.2218,5.2228,5.228,5.2299,5.2093,5.2092,5.2092,0,0,5.1707,5.1725,5.1762,5.1823,5.1843,5.1899,5.183,5.1893,5.1933,5.1883,5.1962,5.1971,5.1999,5.2094,5.2136,5.2105,5.2286,5.2229,5.2239,5.2243,5.2291,5.2311,5.2328,5.2099,5.2098,5.2097,0,0,5.1846,5.1868,5.1943,5.1964,5.1995,5.1992,5.201,5.2033,5.2036,5.2116,5.2078,5.2125,5.2209,5.2229,5.225,5.2393,5.236,5.2409,5.2487,5.2538,5.2554,5.2568,5.2615,5.2632,5.242,5.242,5.242,0,5.1918,5.2002,5.1986,5.205,5.2076,5.2034,5.2108,5.2129,5.2173,5.219,5.2156,5.2258,5.2274,5.237,5.2405,5.2425,5.2442,5.2404,5.2553,5.2567,5.258,5.2624,5.2643,5.2425,5.2425,5.2424,5.2423,0,5.2086,5.2145,5.2202,5.2244,5.2277,5.2347,5.2339,5.2374,5.2356,5.2356,5.2435,5.2453,5.2498,5.2521,5.2505,5.2614,5.2593,5.2557,5.2493,5.2606,5.2646,5.2664,5.2433,5.2431,5.2429,5.2428,0,0,5.2275,5.2306,5.2327,5.2343,5.2373,5.2417,5.2483,5.2528,5.2556,5.2587,5.2639,5.271,5.2675,5.2699,5.2685,5.273,5.2837,5.2687,5.2687,5.2711,5.2953,5.2977,5.2998,5.2816,5.282,5.2822,5.2949,0,5.2411,5.2526,5.2512,5.2621,5.2672,5.2631,5.2688,5.271,5.2712,5.2754,5.2755,5.2803,5.2756,5.2769,5.2813,5.2815,5.2884,5.2806,5.2861,5.2863,5.2851,5.302,5.3047,5.3165,5.2965,5.2968,5.297,0,5.2586,5.2621,5.2736,5.2753,5.2774,5.2825,5.2863,5.2905,5.2928,5.2926,5.2952,5.2928,5.2991,5.2929,5.3013,5.2959,5.2981,5.2985,5.2989,5.2991,5.2921,5.3022,5.3203,5.322,5.2996,5.2994,5.2992,0,5.2706,5.2784,5.286,5.2877,5.29,5.2936,5.2948,5.2968,5.2994,5.3027,5.3043,5.3083,5.3104,5.3134,5.3121,5.3078,5.3206,5.3144,5.3202,5.3202,5.3228,5.3226,5.3412,5.3249,5.3249,5.3249,5.3248,0,5.2857,5.2928,5.2914,5.2961,5.3037,5.3019,5.3094,5.3101,5.3118,5.3163,5.3131,5.3174,5.3156,5.3197,5.3187,5.3255,5.3266,5.3263,5.3259,5.3264,5.3264,5.3275,5.3265,5.3254,5.3252,5.3252,5.3251,0,5.3004,5.2999,5.3079,5.3094,5.3099,5.3154,5.3166,5.3208,5.3207,5.3264,5.3276,5.3273,5.3319,5.331,5.3361,5.3354,5.3439,5.3426,5.3431,5.3426,5.3483,5.3477,5.368,5.3704,5.353,5.3532,5.3533,0,5.3099,5.3152,5.3172,5.32,5.3213,5.326,5.3286,5.3269,5.3298,5.3326,5.3365,5.3408,5.3441,5.3517,5.3518,5.3555,5.3541,5.361,5.3546,5.3548,5.3537,5.3532,5.3535,5.3621,5.3623,5.3625,5.3626,0,5.3267,5.326,5.33,5.3338,5.337,5.3399,5.3425,5.3449,5.3434,5.3468,5.3514,5.354,5.3591,5.3633,5.3668,5.3677,5.3648,5.3647,5.3661,5.3665,5.3663,5.366,5.346,5.3641,5.364,5.3639,5.3638,5.3637,5.3387,5.343,5.345,5.3494,5.3511,5.3535,5.3574,5.3577,5.3616,5.3656,5.3644,5.3696,5.3714,5.3758,5.3771,5.381,5.3784,5.3806,5.3811,5.3816,5.3821,5.366,5.3817,5.3816,5.3816,5.3815,5.3815,0,5.3549,5.3559,5.36,5.3636,5.3669,5.3641,5.3667,5.3696,5.3742,5.3763,5.3795,5.3847,5.3887,5.3891,5.3927,5.3957,5.3945,5.3967,5.3963,5.3964,5.3844,5.3826,5.3977,5.3976,5.3976,5.3976,5.3976,5.3976,5.3637,5.3706,5.3702,5.3779,5.3788,5.3838,5.3855,5.3876,5.3891,5.395,5.3983,5.3985,5.3998,5.4035,5.4069,5.4069,5.4082,5.4109,5.4103,5.399,5.3974,5.3958,5.394,5.4113,5.4113,5.4219,5.422,5.4221]}]]